Year,Month,Day,Hour,Minute,Value (Times are PST for temperature in C)
2013,08,21,00,00,17.00
2013,08,21,00,01,17.10
2013,08,21,00,02,17.10
2013,08,21,00,03,17.10
2013,08,21,00,04,17.10
2013,08,21,00,05,17.10
2013,08,21,00,06,17.00
2013,08,21,00,07,17.00
2013,08,21,00,08,17.00
2013,08,21,00,09,17.00
2013,08,21,00,10,17.00
2013,08,21,00,11,17.00
2013,08,21,00,12,17.10
2013,08,21,00,13,17.10
2013,08,21,00,14,17.10
2013,08,21,00,15,17.00
2013,08,21,00,16,17.00
2013,08,21,00,17,17.10
2013,08,21,00,18,17.10
2013,08,21,00,19,17.20
2013,08,21,00,20,17.20
2013,08,21,00,21,17.30
2013,08,21,00,22,17.30
2013,08,21,00,23,17.30
2013,08,21,00,24,17.40
2013,08,21,00,25,17.40
2013,08,21,00,26,17.40
2013,08,21,00,27,17.50
2013,08,21,00,28,17.50
2013,08,21,00,29,17.60
2013,08,21,00,30,17.60
2013,08,21,00,31,17.60
2013,08,21,00,32,17.60
2013,08,21,00,33,17.60
2013,08,21,00,34,17.60
2013,08,21,00,35,17.60
2013,08,21,00,36,17.60
2013,08,21,00,37,17.70
2013,08,21,00,38,17.70
2013,08,21,00,39,17.70
2013,08,21,00,40,17.70
2013,08,21,00,41,17.70
2013,08,21,00,42,17.60
2013,08,21,00,43,17.60
2013,08,21,00,44,17.70
2013,08,21,00,45,17.70
2013,08,21,00,46,17.70
2013,08,21,00,47,17.70
2013,08,21,00,48,17.80
2013,08,21,00,49,17.80
2013,08,21,00,50,17.80
2013,08,21,00,51,17.80
2013,08,21,00,52,17.90
2013,08,21,00,53,17.90
2013,08,21,00,54,17.90
2013,08,21,00,55,17.90
2013,08,21,00,56,18.00
2013,08,21,00,57,18.00
2013,08,21,00,58,18.00
2013,08,21,00,59,18.00
2013,08,21,01,00,18.00
2013,08,21,01,01,17.90
2013,08,21,01,02,17.90
2013,08,21,01,03,17.90
2013,08,21,01,04,17.80
2013,08,21,01,05,17.80
2013,08,21,01,06,17.80
2013,08,21,01,07,17.80
2013,08,21,01,08,17.80
2013,08,21,01,09,17.80
2013,08,21,01,10,17.70
2013,08,21,01,11,17.70
2013,08,21,01,12,17.70
2013,08,21,01,13,17.60
2013,08,21,01,14,17.60
2013,08,21,01,15,17.60
2013,08,21,01,16,17.60
2013,08,21,01,17,17.50
2013,08,21,01,18,17.50
2013,08,21,01,19,17.50
2013,08,21,01,20,17.40
2013,08,21,01,21,17.40
2013,08,21,01,22,17.40
2013,08,21,01,23,17.40
2013,08,21,01,24,17.40
2013,08,21,01,25,17.30
2013,08,21,01,26,17.30
2013,08,21,01,27,17.30
2013,08,21,01,28,17.30
2013,08,21,01,29,17.30
2013,08,21,01,30,17.20
2013,08,21,01,31,17.20
2013,08,21,01,32,17.20
2013,08,21,01,33,17.20
2013,08,21,01,34,17.20
2013,08,21,01,35,17.20
2013,08,21,01,36,17.20
2013,08,21,01,37,17.10
2013,08,21,01,38,17.10
2013,08,21,01,39,17.10
2013,08,21,01,40,17.10
2013,08,21,01,41,17.10
2013,08,21,01,42,17.10
2013,08,21,01,43,17.10
2013,08,21,01,44,17.10
2013,08,21,01,45,17.10
2013,08,21,01,46,17.10
2013,08,21,01,47,17.10
2013,08,21,01,48,17.10
2013,08,21,01,49,17.00
2013,08,21,01,50,17.00
2013,08,21,01,51,17.00
2013,08,21,01,52,17.00
2013,08,21,01,53,17.00
2013,08,21,01,54,17.00
2013,08,21,01,55,17.00
2013,08,21,01,56,17.00
2013,08,21,01,57,17.10
2013,08,21,01,58,17.10
2013,08,21,01,59,17.10
2013,08,21,02,00,17.10
2013,08,21,02,01,17.10
2013,08,21,02,02,17.20
2013,08,21,02,03,17.20
2013,08,21,02,04,17.20
2013,08,21,02,05,17.30
2013,08,21,02,06,17.30
2013,08,21,02,07,17.30
2013,08,21,02,08,17.30
2013,08,21,02,09,17.30
2013,08,21,02,10,17.30
2013,08,21,02,11,17.30
2013,08,21,02,12,17.30
2013,08,21,02,13,17.30
2013,08,21,02,14,17.30
2013,08,21,02,15,17.30
2013,08,21,02,16,17.30
2013,08,21,02,17,17.30
2013,08,21,02,18,17.30
2013,08,21,02,19,17.40
2013,08,21,02,20,17.50
2013,08,21,02,21,17.50
2013,08,21,02,22,17.60
2013,08,21,02,23,17.60
2013,08,21,02,24,17.60
2013,08,21,02,25,17.60
2013,08,21,02,26,17.60
2013,08,21,02,27,17.60
2013,08,21,02,28,17.60
2013,08,21,02,29,17.50
2013,08,21,02,30,17.50
2013,08,21,02,31,17.50
2013,08,21,02,32,17.50
2013,08,21,02,33,17.50
2013,08,21,02,34,17.60
2013,08,21,02,35,17.60
2013,08,21,02,36,17.60
2013,08,21,02,37,17.60
2013,08,21,02,38,17.60
2013,08,21,02,39,17.60
2013,08,21,02,40,17.50
2013,08,21,02,41,17.50
2013,08,21,02,42,17.50
2013,08,21,02,43,17.50
2013,08,21,02,44,17.50
2013,08,21,02,45,17.50
2013,08,21,02,46,17.50
2013,08,21,02,47,17.50
2013,08,21,02,48,17.50
2013,08,21,02,49,17.40
2013,08,21,02,50,17.40
2013,08,21,02,51,17.40
2013,08,21,02,52,17.40
2013,08,21,02,53,17.30
2013,08,21,02,54,17.30
2013,08,21,02,55,17.30
2013,08,21,02,56,17.30
2013,08,21,02,57,17.20
2013,08,21,02,58,17.20
2013,08,21,02,59,17.20
2013,08,21,03,00,17.20
2013,08,21,03,01,17.10
2013,08,21,03,02,17.00
2013,08,21,03,03,17.00
2013,08,21,03,04,16.90
2013,08,21,03,05,16.80
2013,08,21,03,06,16.80
2013,08,21,03,07,16.70
2013,08,21,03,08,16.70
2013,08,21,03,09,16.60
2013,08,21,03,10,16.60
2013,08,21,03,11,16.60
2013,08,21,03,12,16.60
2013,08,21,03,13,16.60
2013,08,21,03,14,16.60
2013,08,21,03,15,16.50
2013,08,21,03,16,16.50
2013,08,21,03,17,16.50
2013,08,21,03,18,16.50
2013,08,21,03,19,16.50
2013,08,21,03,20,16.40
2013,08,21,03,21,16.40
2013,08,21,03,22,16.40
2013,08,21,03,23,16.40
2013,08,21,03,24,16.40
2013,08,21,03,25,16.30
2013,08,21,03,26,16.30
2013,08,21,03,27,16.30
2013,08,21,03,28,16.20
2013,08,21,03,29,16.20
2013,08,21,03,30,16.10
2013,08,21,03,31,16.10
2013,08,21,03,32,16.00
2013,08,21,03,33,16.00
2013,08,21,03,34,15.90
2013,08,21,03,35,15.80
2013,08,21,03,36,15.80
2013,08,21,03,37,15.80
2013,08,21,03,38,15.80
2013,08,21,03,39,15.80
2013,08,21,03,40,15.80
2013,08,21,03,41,15.80
2013,08,21,03,42,15.80
2013,08,21,03,43,15.80
2013,08,21,03,44,15.80
2013,08,21,03,45,15.80
2013,08,21,03,46,15.90
2013,08,21,03,47,15.90
2013,08,21,03,48,15.90
2013,08,21,03,49,15.90
2013,08,21,03,50,15.90
2013,08,21,03,51,15.90
2013,08,21,03,52,16.00
2013,08,21,03,53,16.00
2013,08,21,03,54,16.00
2013,08,21,03,55,16.00
2013,08,21,03,56,16.00
2013,08,21,03,57,16.10
2013,08,21,03,58,16.10
2013,08,21,03,59,16.10
2013,08,21,04,00,16.10
2013,08,21,04,01,16.10
2013,08,21,04,02,16.10
2013,08,21,04,03,16.10
2013,08,21,04,04,16.10
2013,08,21,04,05,16.10
2013,08,21,04,06,16.10
2013,08,21,04,07,16.10
2013,08,21,04,08,16.20
2013,08,21,04,09,16.20
2013,08,21,04,10,16.20
2013,08,21,04,11,16.30
2013,08,21,04,12,16.30
2013,08,21,04,13,16.40
2013,08,21,04,14,16.40
2013,08,21,04,15,16.50
2013,08,21,04,16,16.60
2013,08,21,04,17,16.60
2013,08,21,04,18,16.60
2013,08,21,04,19,16.60
2013,08,21,04,20,16.60
2013,08,21,04,21,16.60
2013,08,21,04,22,16.60
2013,08,21,04,23,16.70
2013,08,21,04,24,16.70
2013,08,21,04,25,16.70
2013,08,21,04,26,16.70
2013,08,21,04,27,16.70
2013,08,21,04,28,16.70
2013,08,21,04,29,16.70
2013,08,21,04,30,16.70
2013,08,21,04,31,16.70
2013,08,21,04,32,16.70
2013,08,21,04,33,16.60
2013,08,21,04,34,16.60
2013,08,21,04,35,16.60
2013,08,21,04,36,16.60
2013,08,21,04,37,16.60
2013,08,21,04,38,16.60
2013,08,21,04,39,16.50
2013,08,21,04,40,16.50
2013,08,21,04,41,16.50
2013,08,21,04,42,16.50
2013,08,21,04,43,16.40
2013,08,21,04,44,16.40
2013,08,21,04,45,16.40
2013,08,21,04,46,16.40
2013,08,21,04,47,16.30
2013,08,21,04,48,16.30
2013,08,21,04,49,16.30
2013,08,21,04,50,16.30
2013,08,21,04,51,16.30
2013,08,21,04,52,16.30
2013,08,21,04,53,16.30
2013,08,21,04,54,16.30
2013,08,21,04,55,16.30
2013,08,21,04,56,16.20
2013,08,21,04,57,16.20
2013,08,21,04,58,16.20
2013,08,21,04,59,16.20
2013,08,21,05,00,16.20
2013,08,21,05,01,16.10
2013,08,21,05,02,16.10
2013,08,21,05,03,16.10
2013,08,21,05,04,16.10
2013,08,21,05,05,16.10
2013,08,21,05,06,16.10
2013,08,21,05,07,16.10
2013,08,21,05,08,16.10
2013,08,21,05,09,16.20
2013,08,21,05,10,16.20
2013,08,21,05,11,16.20
2013,08,21,05,12,16.20
2013,08,21,05,13,16.20
2013,08,21,05,14,16.30
2013,08,21,05,15,16.30
2013,08,21,05,16,16.30
2013,08,21,05,17,16.30
2013,08,21,05,18,16.20
2013,08,21,05,19,16.20
2013,08,21,05,20,16.20
2013,08,21,05,21,16.30
2013,08,21,05,22,16.30
2013,08,21,05,23,16.30
2013,08,21,05,24,16.30
2013,08,21,05,25,16.30
2013,08,21,05,26,16.40
2013,08,21,05,27,16.40
2013,08,21,05,28,16.40
2013,08,21,05,29,16.50
2013,08,21,05,30,16.50
2013,08,21,05,31,16.50
2013,08,21,05,32,16.50
2013,08,21,05,33,16.50
2013,08,21,05,34,16.50
2013,08,21,05,35,16.50
2013,08,21,05,36,16.50
2013,08,21,05,37,16.50
2013,08,21,05,38,16.50
2013,08,21,05,39,16.50
2013,08,21,05,40,16.40
2013,08,21,05,41,16.40
2013,08,21,05,42,16.40
2013,08,21,05,43,16.40
2013,08,21,05,44,16.30
2013,08,21,05,45,16.30
2013,08,21,05,46,16.30
2013,08,21,05,47,16.30
2013,08,21,05,48,16.30
2013,08,21,05,49,16.30
2013,08,21,05,50,16.30
2013,08,21,05,51,16.30
2013,08,21,05,52,16.30
2013,08,21,05,53,16.30
2013,08,21,05,54,16.40
2013,08,21,05,55,16.40
2013,08,21,05,56,16.40
2013,08,21,05,57,16.40
2013,08,21,05,58,16.40
2013,08,21,05,59,16.40
2013,08,21,06,00,16.40
2013,08,21,06,01,16.40
2013,08,21,06,02,16.40
2013,08,21,06,03,16.40
2013,08,21,06,04,16.40
2013,08,21,06,05,16.40
2013,08,21,06,06,16.30
2013,08,21,06,07,16.30
2013,08,21,06,08,16.30
2013,08,21,06,09,16.30
2013,08,21,06,10,16.20
2013,08,21,06,11,16.20
2013,08,21,06,12,16.20
2013,08,21,06,13,16.30
2013,08,21,06,14,16.30
2013,08,21,06,15,16.30
2013,08,21,06,16,16.30
2013,08,21,06,17,16.30
2013,08,21,06,18,16.30
2013,08,21,06,19,16.30
2013,08,21,06,20,16.20
2013,08,21,06,21,16.20
2013,08,21,06,22,16.20
2013,08,21,06,23,16.20
2013,08,21,06,24,16.20
2013,08,21,06,25,16.20
2013,08,21,06,26,16.20
2013,08,21,06,27,16.20
2013,08,21,06,28,16.20
2013,08,21,06,29,16.20
2013,08,21,06,30,16.20
2013,08,21,06,31,16.20
2013,08,21,06,32,16.20
2013,08,21,06,33,16.20
2013,08,21,06,34,16.20
2013,08,21,06,35,16.20
2013,08,21,06,36,16.20
2013,08,21,06,37,16.20
2013,08,21,06,38,16.20
2013,08,21,06,39,16.20
2013,08,21,06,40,16.20
2013,08,21,06,41,16.20
2013,08,21,06,42,16.20
2013,08,21,06,43,16.20
2013,08,21,06,44,16.20
2013,08,21,06,45,16.10
2013,08,21,06,46,16.10
2013,08,21,06,47,16.20
2013,08,21,06,48,16.20
2013,08,21,06,49,16.20
2013,08,21,06,50,16.20
2013,08,21,06,51,16.20
2013,08,21,06,52,16.30
2013,08,21,06,53,16.30
2013,08,21,06,54,16.30
2013,08,21,06,55,16.30
2013,08,21,06,56,16.30
2013,08,21,06,57,16.30
2013,08,21,06,58,16.30
2013,08,21,06,59,16.30
2013,08,21,07,00,16.30
2013,08,21,07,01,16.30
2013,08,21,07,02,16.30
2013,08,21,07,03,16.30
2013,08,21,07,04,16.30
2013,08,21,07,05,16.30
2013,08,21,07,06,16.30
2013,08,21,07,07,16.30
2013,08,21,07,08,16.30
2013,08,21,07,09,16.30
2013,08,21,07,10,16.30
2013,08,21,07,11,16.40
2013,08,21,07,12,16.40
2013,08,21,07,13,16.40
2013,08,21,07,14,16.40
2013,08,21,07,15,16.40
2013,08,21,07,16,16.40
2013,08,21,07,17,16.40
2013,08,21,07,18,16.50
2013,08,21,07,19,16.50
2013,08,21,07,20,16.50
2013,08,21,07,21,16.50
2013,08,21,07,22,16.60
2013,08,21,07,23,16.60
2013,08,21,07,24,16.60
2013,08,21,07,25,16.60
2013,08,21,07,26,16.60
2013,08,21,07,27,16.60
2013,08,21,07,28,16.70
2013,08,21,07,29,16.70
2013,08,21,07,30,16.70
2013,08,21,07,31,16.80
2013,08,21,07,32,16.80
2013,08,21,07,33,16.80
2013,08,21,07,34,16.80
2013,08,21,07,35,16.90
2013,08,21,07,36,16.90
2013,08,21,07,37,16.90
2013,08,21,07,38,16.90
2013,08,21,07,39,16.90
2013,08,21,07,40,16.90
2013,08,21,07,41,16.90
2013,08,21,07,42,16.90
2013,08,21,07,43,16.90
2013,08,21,07,44,17.00
2013,08,21,07,45,17.00
2013,08,21,07,46,17.00
2013,08,21,07,47,17.10
2013,08,21,07,48,17.10
2013,08,21,07,49,17.10
2013,08,21,07,50,17.10
2013,08,21,07,51,17.10
2013,08,21,07,52,17.10
2013,08,21,07,53,17.10
2013,08,21,07,54,17.20
2013,08,21,07,55,17.20
2013,08,21,07,56,17.20
2013,08,21,07,57,17.20
2013,08,21,07,58,17.20
2013,08,21,07,59,17.20
2013,08,21,08,00,17.20
2013,08,21,08,01,17.20
2013,08,21,08,02,17.20
2013,08,21,08,03,17.20
2013,08,21,08,04,17.20
2013,08,21,08,05,17.20
2013,08,21,08,06,17.20
2013,08,21,08,07,17.20
2013,08,21,08,08,17.20
2013,08,21,08,09,17.20
2013,08,21,08,10,17.20
2013,08,21,08,11,17.20
2013,08,21,08,12,17.20
2013,08,21,08,13,17.20
2013,08,21,08,14,17.20
2013,08,21,08,15,17.20
2013,08,21,08,16,17.20
2013,08,21,08,17,17.20
2013,08,21,08,18,17.20
2013,08,21,08,19,17.20
2013,08,21,08,20,17.20
2013,08,21,08,21,17.30
2013,08,21,08,22,17.30
2013,08,21,08,23,17.30
2013,08,21,08,24,17.30
2013,08,21,08,25,17.30
2013,08,21,08,26,17.30
2013,08,21,08,27,17.30
2013,08,21,08,28,17.30
2013,08,21,08,29,17.40
2013,08,21,08,30,17.40
2013,08,21,08,31,17.50
2013,08,21,08,32,17.50
2013,08,21,08,33,17.60
2013,08,21,08,34,17.60
2013,08,21,08,35,17.60
2013,08,21,08,36,17.60
2013,08,21,08,37,17.70
2013,08,21,08,38,17.70
2013,08,21,08,39,17.70
2013,08,21,08,40,17.80
2013,08,21,08,41,17.80
2013,08,21,08,42,17.80
2013,08,21,08,43,17.80
2013,08,21,08,44,17.90
2013,08,21,08,45,17.90
2013,08,21,08,46,17.90
2013,08,21,08,47,18.00
2013,08,21,08,48,18.00
2013,08,21,08,49,18.10
2013,08,21,08,50,18.10
2013,08,21,08,51,18.20
2013,08,21,08,52,18.20
2013,08,21,08,53,18.20
2013,08,21,08,54,18.30
2013,08,21,08,55,18.30
2013,08,21,08,56,18.30
2013,08,21,08,57,18.40
2013,08,21,08,58,18.40
2013,08,21,08,59,18.40
2013,08,21,09,00,18.50
2013,08,21,09,01,18.50
2013,08,21,09,02,18.60
2013,08,21,09,03,18.60
2013,08,21,09,04,18.60
2013,08,21,09,05,18.70
2013,08,21,09,06,18.70
2013,08,21,09,07,18.80
2013,08,21,09,08,18.80
2013,08,21,09,09,18.80
2013,08,21,09,10,18.80
2013,08,21,09,11,18.80
2013,08,21,09,12,18.90
2013,08,21,09,13,18.90
2013,08,21,09,14,18.90
2013,08,21,09,15,19.00
2013,08,21,09,16,19.00
2013,08,21,09,17,19.00
2013,08,21,09,18,19.00
2013,08,21,09,19,19.00
2013,08,21,09,20,19.00
2013,08,21,09,21,19.00
2013,08,21,09,22,19.10
2013,08,21,09,23,19.00
2013,08,21,09,24,19.10
2013,08,21,09,25,19.10
2013,08,21,09,26,19.10
2013,08,21,09,27,19.10
2013,08,21,09,28,19.10
2013,08,21,09,29,19.10
2013,08,21,09,30,19.10
2013,08,21,09,31,19.10
2013,08,21,09,32,19.20
2013,08,21,09,33,19.20
2013,08,21,09,34,19.30
2013,08,21,09,35,19.30
2013,08,21,09,36,19.30
2013,08,21,09,37,19.30
2013,08,21,09,38,19.30
2013,08,21,09,39,19.40
2013,08,21,09,40,19.40
2013,08,21,09,41,19.50
2013,08,21,09,42,19.50
2013,08,21,09,43,19.50
2013,08,21,09,44,19.60
2013,08,21,09,45,19.60
2013,08,21,09,46,19.60
2013,08,21,09,47,19.60
2013,08,21,09,48,19.60
2013,08,21,09,49,19.60
2013,08,21,09,50,19.60
2013,08,21,09,51,19.70
2013,08,21,09,52,19.70
2013,08,21,09,53,19.80
2013,08,21,09,54,19.80
2013,08,21,09,55,19.90
2013,08,21,09,56,19.90
2013,08,21,09,57,19.90
2013,08,21,09,58,19.90
2013,08,21,09,59,19.90
2013,08,21,10,00,19.90
2013,08,21,10,01,19.80
2013,08,21,10,02,19.80
2013,08,21,10,03,19.80
2013,08,21,10,04,19.80
2013,08,21,10,05,19.70
2013,08,21,10,06,19.70
2013,08,21,10,07,19.70
2013,08,21,10,08,19.80
2013,08,21,10,09,19.80
2013,08,21,10,10,19.80
2013,08,21,10,11,19.80
2013,08,21,10,12,19.90
2013,08,21,10,13,19.90
2013,08,21,10,14,20.00
2013,08,21,10,15,20.00
2013,08,21,10,16,20.10
2013,08,21,10,17,20.10
2013,08,21,10,18,20.10
2013,08,21,10,19,20.10
2013,08,21,10,20,20.20
2013,08,21,10,21,20.20
2013,08,21,10,22,20.20
2013,08,21,10,23,20.30
2013,08,21,10,24,20.30
2013,08,21,10,25,20.30
2013,08,21,10,26,20.30
2013,08,21,10,27,20.30
2013,08,21,10,28,20.30
2013,08,21,10,29,20.30
2013,08,21,10,30,20.30
2013,08,21,10,31,20.30
2013,08,21,10,32,20.30
2013,08,21,10,33,20.30
2013,08,21,10,34,20.40
2013,08,21,10,35,20.50
2013,08,21,10,36,20.60
2013,08,21,10,37,20.60
2013,08,21,10,38,20.70
2013,08,21,10,39,20.70
2013,08,21,10,40,20.60
2013,08,21,10,41,20.60
2013,08,21,10,42,20.50
2013,08,21,10,43,20.50
2013,08,21,10,44,20.50
2013,08,21,10,45,20.50
2013,08,21,10,46,20.40
2013,08,21,10,47,20.40
2013,08,21,10,48,20.40
2013,08,21,10,49,20.50
2013,08,21,10,50,20.60
2013,08,21,10,51,20.60
2013,08,21,10,52,20.60
2013,08,21,10,53,20.60
2013,08,21,10,54,20.60
2013,08,21,10,55,20.60
2013,08,21,10,56,20.60
2013,08,21,10,57,20.60
2013,08,21,10,58,20.70
2013,08,21,10,59,20.70
2013,08,21,11,00,20.70
2013,08,21,11,01,20.80
2013,08,21,11,02,20.80
2013,08,21,11,03,20.80
2013,08,21,11,04,20.90
2013,08,21,11,05,20.90
2013,08,21,11,06,21.00
2013,08,21,11,07,21.00
2013,08,21,11,08,21.10
2013,08,21,11,09,21.10
2013,08,21,11,10,21.10
2013,08,21,11,11,21.00
2013,08,21,11,12,20.90
2013,08,21,11,13,20.90
2013,08,21,11,14,20.90
2013,08,21,11,15,20.90
2013,08,21,11,16,20.90
2013,08,21,11,17,20.80
2013,08,21,11,18,20.80
2013,08,21,11,19,20.90
2013,08,21,11,20,20.90
2013,08,21,11,21,21.00
2013,08,21,11,22,21.00
2013,08,21,11,23,21.10
2013,08,21,11,24,21.10
2013,08,21,11,25,21.10
2013,08,21,11,26,21.20
2013,08,21,11,27,21.20
2013,08,21,11,28,21.20
2013,08,21,11,29,21.20
2013,08,21,11,30,21.20
2013,08,21,11,31,21.10
2013,08,21,11,32,21.10
2013,08,21,11,33,21.10
2013,08,21,11,34,21.10
2013,08,21,11,35,21.10
2013,08,21,11,36,21.10
2013,08,21,11,37,21.10
2013,08,21,11,38,21.10
2013,08,21,11,39,21.00
2013,08,21,11,40,20.90
2013,08,21,11,41,20.90
2013,08,21,11,42,20.80
2013,08,21,11,43,20.80
2013,08,21,11,44,20.90
2013,08,21,11,45,20.80
2013,08,21,11,46,20.80
2013,08,21,11,47,20.80
2013,08,21,11,48,20.80
2013,08,21,11,49,20.70
2013,08,21,11,50,20.70
2013,08,21,11,51,20.80
2013,08,21,11,52,20.80
2013,08,21,11,53,20.80
2013,08,21,11,54,20.70
2013,08,21,11,55,20.70
2013,08,21,11,56,20.70
2013,08,21,11,57,20.70
2013,08,21,11,58,20.80
2013,08,21,11,59,20.80
2013,08,21,12,00,20.80
2013,08,21,12,01,20.80
2013,08,21,12,02,20.80
2013,08,21,12,03,20.80
2013,08,21,12,04,20.80
2013,08,21,12,05,20.70
2013,08,21,12,06,20.70
2013,08,21,12,07,20.70
2013,08,21,12,08,20.70
2013,08,21,12,09,20.80
2013,08,21,12,10,20.80
2013,08,21,12,11,20.90
2013,08,21,12,12,20.90
2013,08,21,12,13,21.00
2013,08,21,12,14,21.10
2013,08,21,12,15,21.10
2013,08,21,12,16,21.10
2013,08,21,12,17,21.10
2013,08,21,12,18,21.10
2013,08,21,12,19,21.20
2013,08,21,12,20,21.20
2013,08,21,12,21,21.20
2013,08,21,12,22,21.20
2013,08,21,12,23,21.20
2013,08,21,12,24,21.10
2013,08,21,12,25,21.10
2013,08,21,12,26,21.00
2013,08,21,12,27,20.90
2013,08,21,12,28,21.00
2013,08,21,12,29,21.00
2013,08,21,12,30,21.10
2013,08,21,12,31,21.00
2013,08,21,12,32,21.00
2013,08,21,12,33,20.90
2013,08,21,12,34,20.90
2013,08,21,12,35,20.90
2013,08,21,12,36,20.90
2013,08,21,12,37,20.90
2013,08,21,12,38,21.00
2013,08,21,12,39,21.00
2013,08,21,12,40,21.00
2013,08,21,12,41,21.10
2013,08,21,12,42,21.10
2013,08,21,12,43,21.10
2013,08,21,12,44,21.10
2013,08,21,12,45,21.20
2013,08,21,12,46,21.20
2013,08,21,12,47,21.30
2013,08,21,12,48,21.40
2013,08,21,12,49,21.40
2013,08,21,12,50,21.50
2013,08,21,12,51,21.60
2013,08,21,12,52,21.70
2013,08,21,12,53,21.80
2013,08,21,12,54,21.90
2013,08,21,12,55,22.00
2013,08,21,12,56,22.10
2013,08,21,12,57,22.10
2013,08,21,12,58,22.20
2013,08,21,12,59,22.20
2013,08,21,13,00,22.20
2013,08,21,13,01,22.30
2013,08,21,13,02,22.30
2013,08,21,13,03,22.40
2013,08,21,13,04,22.40
2013,08,21,13,05,22.40
2013,08,21,13,06,22.30
2013,08,21,13,07,22.30
2013,08,21,13,08,22.30
2013,08,21,13,09,22.30
2013,08,21,13,10,22.40
2013,08,21,13,11,22.50
2013,08,21,13,12,22.50
2013,08,21,13,13,22.60
2013,08,21,13,14,22.60
2013,08,21,13,15,22.60
2013,08,21,13,16,22.60
2013,08,21,13,17,22.60
2013,08,21,13,18,22.70
2013,08,21,13,19,22.60
2013,08,21,13,20,22.70
2013,08,21,13,21,22.70
2013,08,21,13,22,22.70
2013,08,21,13,23,22.80
2013,08,21,13,24,22.80
2013,08,21,13,25,22.70
2013,08,21,13,26,22.80
2013,08,21,13,27,22.80
2013,08,21,13,28,22.80
2013,08,21,13,29,22.90
2013,08,21,13,30,22.80
2013,08,21,13,31,22.80
2013,08,21,13,32,22.80
2013,08,21,13,33,22.70
2013,08,21,13,34,22.60
2013,08,21,13,35,22.60
2013,08,21,13,36,22.60
2013,08,21,13,37,22.60
2013,08,21,13,38,22.80
2013,08,21,13,39,22.90
2013,08,21,13,40,23.00
2013,08,21,13,41,23.20
2013,08,21,13,42,23.30
2013,08,21,13,43,23.30
2013,08,21,13,44,23.40
2013,08,21,13,45,23.30
2013,08,21,13,46,23.30
2013,08,21,13,47,23.30
